User: anonymous   Login
Location: Deer Lodge Site
(39.6809°N, 119.9392°W)
Time: 17:03:49
(UTC-07:00)
Language:

CZ-4C R/B - Orbit

View from above orbital plane
View from above orbital plane
View from above satellite
View from above satellite

Ground track
Ground track

The orbit data is extracted from the following two-line orbital elements,

1 36416U 10009D   17147.90680910 -.00000101 +00000-0 -32594-5 0  9995
2 36416 063.4393 318.5128 0384967 356.3729 003.4534 13.69516466361433
Epoch (UTC): 27 May 2017 21:45:48
Eccentricity: 0.0384967
inclination: 63.4393°
perigee height: 717 km
apogee height: 1285 km
right ascension of ascending node: 318.5128°
argument of perigee: 356.3729°
revolutions per day: 13.69516466
mean anomaly at epoch: 3.4534°
orbit number at epoch: 36143

The dashed part of the orbit path shows where the satellite is in the earth's shadow,  

DLR